sat.trackr.live / text

‹ back to catalog

ORBITER SN3

NORAD 56960 · 2023-084AE

PAYLOAD ACTIVE UNKNOWN

§ Identity

Operator
Country
US
Launch date
2023-06-12
Launch site
AFWTR
Launch vehicle
Mass (kg)
RCS (m²)

External: N2YO · Heavens-Above · Gunter

§ Orbital elements

Epoch: 2026-05-25T04:09:53.353152Z

Period
93.86 min
Inclination
97.6238°
Eccentricity
0.0008963
Mean motion
15.34245473 rev/d
Perigee alt
457.0 km
Apogee alt
469.3 km
Semi-major
6,841.3 km
B*
2.4020e-4
RAAN
285.2332°
Arg perigee
60.9436°
Mean anomaly
299.2703°
Rev number
16,396

§ Raw data

ORBITER SN31 56960U 23084AE  26145.17353418  .00007888  00000+0  24020-3 0  99942 56960  97.6238 285.2332 0008963  60.9436 299.2703 15.34245473163967

JSON: /api/v1/satellites/56960 · /tle

For live sub-satellite position, see the globe view (requires WebGL).

§ Visibility from observer

Set your observer location to see the next 7 days of passes ≥ 10°. The values pass through the URL so the page stays shareable.

No JS? Fill the form by hand. The geolocation button needs JavaScript.